Location: Banksville Park
(38.5557°N, 75.1182°W)
Time: 07:05:14
(UTC+00:00)

deb Chang Zheng 4 - Pass Details

Date: 19 September 2020
Orbit: 602 x 626 km, 98.6° (Epoch: 19 October)

Event Time Altitude Azimuth Distance (km) Brightness Sun altitude
Rises 09:42:55 0° 9° (N) 2,891 7.3 -13.0°
Reaches altitude 10° 09:45:08 10° 6° (N) 1,978 6.4 -12.6°
Maximum altitude 09:49:22 61° 286° (WNW) 692 3.5 -11.8°
Drops below altitude 10° 09:53:33 10° 206° (SSW) 1,950 5.8 -11.0°
Sets 09:55:43 0° 203° (SSW) 2,846 6.6 -10.6°
